GW2167 Weather Reports


time (UTC)temp
F
wind
direction
speed
knots
gust
knots
rain 1hr
in
rain 24hr
in
rain mn
in
humidity
%
barometer
mb
20260508095903 49 319 3.5 7.8 0.01 0.08 0.08 95 1010.8
20260508095803 49 324 3.5 7.8 0.01 0.08 0.08 95 1010.8
20260508095703 49 327 3.5 7.0 0.01 0.08 0.08 95 1010.9
20260508095603 49 329 3.5 7.0 0.01 0.08 0.08 95 1010.7
20260508095503 49 326 3.5 7.0 0.01 0.08 0.08 96 1010.7
20260508095403 49 327 3.5 7.0 0.01 0.08 0.08 96 1010.8
20260508095306 49 330 3.5 7.0 0.01 0.08 0.08 96 1010.7
20260508095203 49 325 3.5 7.0 0.01 0.08 0.08 96 1010.6
20260508095103 49 324 3.5 7.0 0.01 0.08 0.08 96 1010.7
20260508095003 49 321 3.5 7.0 0.01 0.08 0.08 96 1010.7
20260508094903 49 318 2.6 7.0 0.01 0.08 0.08 96 1010.6
20260508094819 49 318 2.6 7.0 0.01 0.08 0.08 96 1010.7
20260508094803 49 316 2.6 7.0 0.01 0.08 0.08 95 1010.7
20260508094703 49 318 2.6 7.0 0.01 0.08 0.08 95 1010.7
20260508094503 49 324 2.6 7.0 0.01 0.08 0.08 95 1010.7
20260508094403 49 324 2.6 7.8 0.01 0.08 0.08 95 1010.7
20260508094303 49 322 3.5 7.8 0.01 0.08 0.08 95 1010.7
20260508094203 49 324 3.5 7.8 0.01 0.08 0.08 95 1010.9
20260508094103 49 328 3.5 7.8 0.01 0.08 0.08 95 1010.8
20260508094016 49 331 3.5 7.8 0.01 0.08 0.08 95 1010.7
20260508094003 49 331 3.5 7.8 0.01 0.08 0.08 95 1010.7
20260508093903 49 332 3.5 7.8 0.01 0.08 0.08 95 1010.7
20260508093703 49 335 4.3 7.8 0.02 0.08 0.08 95 1010.6
20260508093603 49 331 4.3 7.8 0.02 0.08 0.08 95 1010.6
20260508093503 49 332 4.3 7.8 0.02 0.08 0.08 96 1010.5
20260508093415 49 333 4.3 7.8 0.01 0.07 0.07 96 1010.7
20260508093403 49 332 4.3 7.8 0.01 0.07 0.07 96 1010.7
20260508093318 49 332 4.3 7.8 0.01 0.07 0.07 96 1010.8
20260508093303 49 332 4.3 7.8 0.01 0.07 0.07 96 1010.8
20260508093003 49 334 3.5 7.8 0.02 0.07 0.07 96 1010.5
20260508092917 49 336 3.5 7.8 0.02 0.07 0.07 96 1010.7
20260508092903 49 337 3.5 7.8 0.02 0.07 0.07 96 1010.7
20260508092803 49 334 3.5 7.8 0.02 0.07 0.07 96 1010.4
20260508092603 49 333 3.5 7.8 0.02 0.07 0.07 96 1010.6
20260508092503 49 330 3.5 7.8 0.02 0.07 0.07 96 1010.5
20260508092403 49 329 3.5 7.0 0.02 0.07 0.07 96 1010.7
20260508092316 49 328 3.5 7.0 0.02 0.07 0.07 96 1010.6
20260508092312 49 327 3.5 7.0 0.02 0.07 0.07 96 1010.6
20260508092117 49 321 3.5 7.8 0.02 0.07 0.07 96 1010.6
20260508092003 48 318 3.5 7.8 0.02 0.07 0.07 96 1010.7
20260508091803 48 314 3.5 9.6 0.02 0.07 0.07 96 1010.5
20260508091703 48 313 3.5 9.6 0.02 0.07 0.07 96 1010.5
20260508091603 48 311 3.5 9.6 0.03 0.07 0.07 96 1010.6
20260508091503 48 311 3.5 9.6 0.03 0.07 0.07 96 1010.5
20260508091419 48 311 3.5 9.6 0.02 0.07 0.07 96 1010.5
20260508091403 48 310 3.5 9.6 0.02 0.07 0.07 96 1010.5
20260508091303 48 312 3.5 9.6 0.02 0.07 0.07 96 1010.5
20260508091103 48 309 3.5 9.6 0.03 0.07 0.07 96 1010.5
20260508091003 48 309 3.5 9.6 0.03 0.07 0.07 96 1010.5
20260508090916 48 310 3.5 9.6 0.03 0.07 0.07 96 1010.7
20260508090903 48 311 3.5 9.6 0.03 0.07 0.07 96 1010.7
20260508090803 48 311 3.5 9.6 0.03 0.07 0.07 96 1010.5
20260508090603 48 312 4.3 9.6 0.03 0.07 0.07 96 1010.5
20260508090503 48 311 4.3 9.6 0.03 0.07 0.07 96 1010.4
20260508090403 48 310 4.3 9.6 0.03 0.07 0.07 96 1010.5
20260508090303 48 307 4.3 9.6 0.04 0.07 0.07 96 1010.4
20260508090203 48 306 4.3 9.6 0.04 0.07 0.07 96 1010.6
20260508090003 48 308 4.3 9.6 0.04 0.07 0.07 96 1010.6
20260508085903 48 304 5.2 9.6 0.04 0.07 0.07 96 1010.4
20260508085803 48 305 4.3 9.6 0.04 0.07 0.07 96 1010.6
20260508085703 48 307 4.3 9.6 0.04 0.07 0.07 96 1010.3
20260508085603 48 310 4.3 9.6 0.04 0.07 0.07 96 1010.3
20260508085403 48 312 4.3 9.6 0.04 0.07 0.07 96 1010.5
20260508085318 48 314 3.5 9.6 0.04 0.07 0.07 96 1010.4
20260508085306 48 313 3.5 9.6 0.04 0.07 0.07 96 1010.4
20260508085203 48 316 3.5 9.6 0.04 0.07 0.07 96 1010.5
20260508085003 49 319 2.6 7.8 0.04 0.07 0.07 96 1010.5
20260508084903 49 325 2.6 7.8 0.04 0.07 0.07 96 1010.6
20260508084803 49 328 2.6 7.8 0.04 0.07 0.07 96 1010.4
20260508084703 49 329 2.6 7.8 0.04 0.07 0.07 96 1010.6
20260508084603 49 328 2.6 7.0 0.04 0.07 0.07 96 1010.5
20260508084503 48 327 2.6 7.0 0.04 0.07 0.07 96 1010.5
20260508084403 48 329 2.6 7.0 0.04 0.07 0.07 96 1010.6
20260508084303 48 328 2.6 7.0 0.04 0.07 0.07 96 1010.5
20260508084203 48 326 2.6 7.0 0.04 0.07 0.07 96 1010.5
20260508084103 48 326 2.6 7.0 0.04 0.07 0.07 96 1010.6
20260508084016 48 326 2.6 7.0 0.04 0.07 0.07 95 1010.5
20260508084003 48 327 2.6 7.0 0.04 0.07 0.07 95 1010.5
20260508083918 48 327 2.6 7.0 0.04 0.07 0.07 96 1010.4
20260508083903 48 327 2.6 7.0 0.04 0.07 0.07 96 1010.4
20260508083719 48 328 2.6 7.0 0.04 0.06 0.06 96 1010.3
20260508083603 48 329 2.6 7.0 0.04 0.06 0.06 96 1010.4
20260508083403 48 331 2.6 7.0 0.04 0.06 0.06 96 1010.4
20260508083303 48 333 3.5 7.0 0.04 0.06 0.06 96 1010.2
20260508083203 48 334 3.5 8.7 0.04 0.06 0.06 96 1010.3
20260508083103 48 338 3.5 9.6 0.04 0.06 0.06 96 1010.3
20260508083003 48 339 3.5 9.6 0.04 0.06 0.06 96 1010.4
20260508082903 48 339 4.3 9.6 0.04 0.06 0.06 96 1010.3
20260508082803 48 337 4.3 9.6 0.04 0.06 0.06 96 1010.3
20260508082703 48 336 4.3 9.6 0.04 0.06 0.06 96 1010.3
20260508082603 48 335 4.3 9.6 0.04 0.06 0.06 96 1010.2
20260508082518 48 337 5.2 9.6 0.04 0.06 0.05 96 1010.3
20260508082503 48 336 5.2 9.6 0.04 0.06 0.05 96 1010.3
20260508082403 48 337 5.2 9.6 0.04 0.06 0.05 96 1010.2
20260508082316 48 339 4.3 9.6 0.04 0.06 0.05 96 1010.5
20260508082203 48 339 4.3 9.6 0.04 0.06 0.05 96 1010.4
20260508082015 48 335 5.2 9.6 0.04 0.05 0.05 96 1010.3
20260508082003 48 335 4.3 9.6 0.04 0.05 0.05 96 1010.3
20260508081903 48 334 4.3 9.6 0.04 0.05 0.05 96 1010.3
20260508081817 48 335 4.3 9.6 0.04 0.05 0.05 96 1010.2
20260508081703 48 336 5.2 9.6 0.04 0.05 0.05 96 1010.1
20260508081516 48 337 5.2 10.4 0.03 0.05 0.05 96 1010.1
20260508081503 48 338 5.2 10.4 0.03 0.05 0.05 96 1010.1
20260508081403 48 336 5.2 10.4 0.03 0.05 0.05 96 1009.9
20260508081203 48 333 5.2 10.4 0.04 0.05 0.05 96 1010.0
20260508081103 48 336 5.2 11.3 0.03 0.04 0.04 96 1010.2
20260508081003 48 337 5.2 11.3 0.03 0.04 0.04 96 1010.3
20260508080903 48 338 5.2 11.3 0.03 0.04 0.04 96 1010.2
20260508080803 48 338 5.2 11.3 0.03 0.04 0.04 96 1010.2
20260508080703 48 337 5.2 11.3 0.03 0.04 0.04 96 1010.1
20260508080603 48 334 5.2 11.3 0.03 0.04 0.04 96 1009.9
20260508080503 48 333 5.2 11.3 0.03 0.04 0.04 96 1010.2
20260508080403 48 334 5.2 11.3 0.03 0.04 0.04 96 1010.1
20260508080303 48 335 5.2 11.3 0.03 0.04 0.03 96 1010.1
20260508080203 48 335 5.2 11.3 0.03 0.04 0.03 96 1010.0
20260508080003 48 332 5.2 11.3 0.03 0.04 0.03 96 1010.0
20260508075903 48 330 5.2 9.6 0.03 0.03 0.03 96 1009.9
20260508075803 48 328 5.2 9.6 0.03 0.03 0.03 96 1010.1
20260508075703 48 326 5.2 9.6 0.03 0.03 0.03 96 1010.0
20260508075618 48 327 5.2 9.6 0.03 0.03 0.03 96 1010.0
20260508075603 48 328 5.2 9.6 0.03 0.03 0.03 96 1010.0
20260508075503 48 326 5.2 9.6 0.03 0.03 0.03 96 1009.9
20260508075308 48 323 5.2 8.7 0.03 0.03 0.03 96 1009.9
20260508075203 48 322 4.3 8.7 0.03 0.03 0.03 96 1010.0
20260508075103 48 323 4.3 8.7 0.03 0.03 0.03 96 1010.0
20260508075017 48 324 3.5 8.7 0.03 0.03 0.03 96 1009.9
20260508075003 48 323 3.5 8.7 0.03 0.03 0.03 96 1009.9
20260508074903 48 326 3.5 8.7 0.03 0.03 0.03 96 1009.9
20260508074703 48 330 3.5 7.8 0.03 0.03 0.03 96 1009.8
20260508074616 48 331 2.6 7.8 0.03 0.03 0.03 96 1009.9
20260508074603 48 330 2.6 7.8 0.03 0.03 0.03 96 1009.9
20260508074503 48 336 2.6 7.0 0.03 0.03 0.03 96 1009.8
20260508074303 48 339 2.6 7.0 0.02 0.02 0.02 96 1010.0
20260508074203 48 339 2.6 8.7 0.02 0.02 0.02 96 1009.9
20260508074103 48 339 2.6 8.7 0.02 0.02 0.02 96 1010.0
20260508074003 48 337 3.5 8.7 0.02 0.02 0.02 96 1010.1
20260508073903 48 340 3.5 8.7 0.02 0.02 0.02 96 1010.0
20260508073803 48 338 3.5 8.7 0.02 0.02 0.02 96 1010.1
20260508073719 48 338 3.5 8.7 0.02 0.02 0.02 96 1010.0
20260508073703 48 339 3.5 8.7 0.02 0.02 0.02 96 1010.0
20260508073603 48 337 3.5 8.7 0.02 0.02 0.02 96 1009.7
20260508073403 48 336 4.3 8.7 0.02 0.02 0.02 96 1009.7
20260508073303 48 337 5.2 8.7 0.02 0.02 0.02 96 1009.9
20260508073203 48 336 5.2 8.7 0.02 0.02 0.02 96 1010.1
20260508073103 48 335 4.3 8.7 0.02 0.02 0.02 96 1009.8
20260508073003 48 334 4.3 8.7 0.02 0.02 0.02 96 1009.9
20260508072903 48 333 4.3 8.7 0.02 0.02 0.02 96 1009.7
20260508072803 48 332 4.3 8.7 0.02 0.02 0.02 96 1009.7
20260508072703 48 331 4.3 8.7 0.02 0.02 0.02 96 1009.7
20260508072603 48 334 4.3 8.7 0.02 0.02 0.02 96 1009.7
20260508072503 48 335 4.3 9.6 0.02 0.02 0.02 96 1009.7
20260508072403 48 333 4.3 9.6 0.02 0.02 0.02 96 1009.8
20260508072319 48 333 4.3 9.6 0.02 0.02 0.02 96 1009.9
20260508072307 48 333 4.3 9.6 0.02 0.02 0.02 96 1009.9
20260508072203 48 333 3.5 9.6 0.02 0.02 0.02 96 1009.6
20260508072003 48 334 4.3 9.6 0.02 0.02 0.02 96 1009.8
20260508071903 48 333 4.3 9.6 0.02 0.02 0.02 96 1009.9
20260508071803 48 335 4.3 9.6 0.02 0.02 0.02 96 1009.8
20260508071703 48 331 4.3 9.6 0.02 0.02 0.02 96 1009.6
20260508071617 48 330 4.3 9.6 0.02 0.02 0.02 96 1009.7
20260508071603 48 329 4.3 9.6 0.02 0.02 0.02 96 1009.7
20260508071503 48 327 4.3 9.6 0.02 0.02 0.02 96 1009.8
20260508071303 48 328 3.5 7.8 0.01 0.01 0.01 96 1009.6
20260508071203 48 328 3.5 9.6 0.01 0.01 0.01 96 1009.8
20260508071103 48 327 3.5 9.6 0.01 0.01 0.01 96 1009.9
20260508071003 48 328 3.5 9.6 0.01 0.01 0.01 95 1009.7
20260508070903 48 328 3.5 9.6 0.01 0.01 0.01 95 1009.7
20260508070803 48 328 3.5 9.6 0.01 0.01 0.01 95 1009.8
20260508070703 48 331 3.5 9.6 0.01 0.01 0.01 95 1009.7
20260508070603 48 331 3.5 9.6 0.01 0.01 0.01 95 1009.7
20260508070503 48 331 3.5 9.6 0.01 0.01 0.01 95 1009.7
20260508070403 48 328 3.5 9.6 0.01 0.01 0.01 95 1009.8
20260508070303 48 330 3.5 9.6 0.00 0.00 0.00 95 1009.9
20260508070203 48 331 3.5 9.6 0.00 0.00 0.00 95 1009.7
20260508070003 48 332 3.5 7.8 0.00 0.00 0.00 95 1010.0
20260508065903 48 331 3.5 7.8 0.00 0.00 0.00 95 1009.6
20260508065803 48 332 3.5 7.8 0.00 0.00 0.00 95 1009.4
20260508065703 48 331 3.5 7.8 0.00 0.00 0.00 96 1009.8
20260508065603 48 329 3.5 7.8 0.00 0.00 0.00 95 1010.0
20260508065503 48 329 4.3 7.8 0.00 0.00 0.00 95 1009.8
20260508065403 48 329 4.3 7.8 0.00 0.00 0.00 95 1009.8
20260508065306 48 328 4.3 7.8 0.00 0.00 0.00 95 1009.7
20260508065203 48 328 3.5 7.8 0.00 0.00 0.00 95 1009.8
20260508065103 48 326 4.3 7.8 0.00 0.00 0.00 95 1009.9
20260508065003 48 327 4.3 7.8 0.00 0.00 0.00 95 1009.6
20260508064916 48 325 4.3 7.8 0.00 0.00 0.00 95 1009.6
20260508064903 48 324 4.3 7.8 0.00 0.00 0.00 95 1009.6
20260508064803 48 323 4.3 7.8 0.00 0.00 0.00 95 1009.7
20260508064603 48 331 4.3 8.7 0.00 0.00 0.00 95 1009.5
20260508064503 48 330 4.3 8.7 0.00 0.00 0.00 95 1009.7
20260508064403 47 332 4.3 8.7 0.00 0.00 0.00 95 1009.4
20260508064303 47 333 4.3 8.7 0.00 0.00 0.00 95 1009.6
20260508064203 47 333 4.3 8.7 0.00 0.00 0.00 95 1009.6
20260508064103 47 337 4.3 8.7 0.00 0.00 0.00 95 1009.6
20260508064019 47 337 4.3 8.7 0.00 0.00 0.00 95 1009.6
20260508064003 47 337 4.3 8.7 0.00 0.00 0.00 94 1009.6
20260508063903 47 338 4.3 8.7 0.00 0.00 0.00 95 1009.8
20260508063703 47 336 4.3 8.7 0.00 0.00 0.00 94 1009.7
20260508063603 47 335 3.5 9.6 0.00 0.00 0.00 94 1009.6
20260508063503 47 335 3.5 9.6 0.00 0.00 0.00 94 1009.6
20260508063403 47 333 4.3 9.6 0.00 0.00 0.00 94 1009.6
20260508063303 47 334 4.3 9.6 0.00 0.00 0.00 94 1009.8
20260508063203 47 332 4.3 9.6 0.00 0.00 0.00 94 1009.6
20260508063119 47 329 4.3 9.6 0.00 0.00 0.00 94 1009.5
20260508063103 47 329 4.3 9.6 0.00 0.00 0.00 94 1009.5
20260508063003 47 327 4.3 9.6 0.00 0.00 0.00 94 1009.4
20260508062803 48 327 5.2 9.6 0.00 0.00 0.00 94 1009.5
20260508062716 48 326 5.2 9.6 0.00 0.00 0.00 94 1009.4
20260508062703 48 325 5.2 9.6 0.00 0.00 0.00 94 1009.4
20260508062603 48 323 5.2 9.6 0.00 0.00 0.00 94 1009.4
20260508062416 48 327 4.3 9.6 0.00 0.00 0.00 94 1009.5
20260508062403 48 328 4.3 8.7 0.00 0.00 0.00 94 1009.5
20260508062306 48 329 4.3 8.7 0.00 0.00 0.00 94 1009.5
20260508062103 48 333 4.3 10.4 0.00 0.00 0.00 94 1009.5
20260508062003 48 334 4.3 10.4 0.00 0.00 0.00 94 1009.3
20260508061903 48 333 4.3 10.4 0.00 0.00 0.00 94 1009.5
20260508061803 48 333 4.3 10.4 0.00 0.00 0.00 94 1009.3
20260508061703 48 333 4.3 11.3 0.00 0.00 0.00 94 1009.5
20260508061603 48 332 4.3 11.3 0.00 0.00 0.00 94 1009.3
20260508061503 48 333 4.3 11.3 0.00 0.00 0.00 94 1009.3
20260508061403 48 331 5.2 11.3 0.00 0.00 0.00 93 1009.3
20260508061203 48 330 5.2 11.3 0.00 0.00 0.00 93 1009.5
20260508061103 48 329 5.2 11.3 0.00 0.00 0.00 93 1009.3
20260508061003 48 332 5.2 11.3 0.00 0.00 0.00 93 1009.3
20260508060919 48 332 5.2 11.3 0.00 0.00 0.00 93 1009.4
20260508060903 48 333 5.2 11.3 0.00 0.00 0.00 93 1009.4
20260508060803 48 334 5.2 11.3 0.00 0.00 0.00 94 1009.3
20260508060619 48 339 5.2 11.3 0.00 0.00 0.00 93 1009.2
20260508060603 47 340 5.2 11.3 0.00 0.00 0.00 93 1009.2
20260508060509 47 337 5.2 9.6 0.00 0.00 0.00 93 1009.5
20260508060303 47 338 5.2 8.7 0.00 0.00 0.00 93 1009.1
20260508060203 47 338 5.2 8.7 0.00 0.00 0.00 93 1009.4
20260508060120 48 339 5.2 8.7 0.00 0.00 0.00 93 1009.3
20260508060003 48 336 5.2 8.7 0.00 0.00 0.00 93 1009.3
20260508055803 48 339 5.2 8.7 0.00 0.00 0.00 93 1009.1
20260508055703 47 337 5.2 8.7 0.00 0.00 0.00 93 1009.3
20260508055603 48 337 5.2 8.7 0.00 0.00 0.00 93 1009.4
20260508055503 48 338 4.3 8.7 0.00 0.00 0.00 93 1009.2
20260508055403 48 336 4.3 8.7 0.00 0.00 0.00 93 1009.2
20260508055306 48 334 4.3 8.7 0.00 0.00 0.00 93 1009.2
20260508055219 48 333 4.3 8.7 0.00 0.00 0.00 93 1009.3
20260508055203 48 333 4.3 8.7 0.00 0.00 0.00 93 1009.3
20260508055103 48 333 4.3 8.7 0.00 0.00 0.00 93 1009.2
20260508054903 48 333 4.3 7.8 0.00 0.00 0.00 93 1009.1
20260508054818 48 332 4.3 9.6 0.00 0.00 0.00 93 1009.1
20260508054803 48 331 4.3 9.6 0.00 0.00 0.00 93 1009.1
20260508054703 48 330 4.3 9.6 0.00 0.00 0.00 93 1009.3
20260508054503 48 330 4.3 9.6 0.00 0.00 0.00 93 1009.3
20260508054403 48 330 4.3 9.6 0.00 0.00 0.00 93 1009.2
20260508054303 48 331 4.3 9.6 0.00 0.00 0.00 93 1009.4
20260508054203 48 330 5.2 9.6 0.00 0.00 0.00 93 1009.1
20260508054103 48 331 4.3 9.6 0.00 0.00 0.00 93 1009.1
20260508054003 48 330 4.3 9.6 0.00 0.00 0.00 93 1009.1
20260508053903 48 331 4.3 9.6 0.00 0.00 0.00 93 1009.3
20260508053803 48 332 4.3 9.6 0.00 0.00 0.00 93 1009.2
20260508053703 48 335 4.3 9.6 0.00 0.00 0.00 93 1009.0
20260508053603 48 336 4.3 8.7 0.00 0.00 0.00 93 1009.2
20260508053503 48 337 4.3 8.7 0.00 0.00 0.00 93 1009.3
20260508053418 48 337 4.3 8.7 0.00 0.00 0.00 93 1009.2
20260508053403 48 338 4.3 8.7 0.00 0.00 0.00 93 1009.2
20260508053303 48 337 4.3 8.7 0.00 0.00 0.00 93 1009.2
20260508053219 48 338 4.3 8.7 0.00 0.00 0.00 93 1009.2
20260508053103 47 338 4.3 8.7 0.00 0.00 0.00 93 1009.2
20260508052903 47 335 4.3 8.7 0.00 0.00 0.00 93 1009.1
20260508052803 47 335 4.3 8.7 0.00 0.00 0.00 93 1009.1
20260508052703 47 332 4.3 8.7 0.00 0.00 0.00 93 1009.2
20260508052603 47 332 4.3 8.7 0.00 0.00 0.00 93 1009.2
20260508052503 47 332 4.3 8.7 0.00 0.00 0.00 93 1009.0
20260508052403 47 334 4.3 8.7 0.00 0.00 0.00 93 1009.3
20260508052306 47 336 4.3 8.7 0.00 0.00 0.00 93 1009.0
20260508052203 47 336 4.3 8.7 0.00 0.00 0.00 93 1009.2
20260508052103 47 336 4.3 8.7 0.00 0.00 0.00 93 1009.1
20260508052003 47 339 4.3 9.6 0.00 0.00 0.00 93 1009.1
20260508051803 47 336 4.3 9.6 0.00 0.00 0.00 93 1009.2
20260508051703 47 336 4.3 9.6 0.00 0.00 0.00 93 1009.2
20260508051617 47 336 4.3 9.6 0.00 0.00 0.00 93 1009.2
20260508051603 47 336 4.3 9.6 0.00 0.00 0.00 93 1009.2
20260508051503 47 335 4.3 9.6 0.00 0.00 0.00 93 1009.3
20260508051303 47 334 4.3 9.6 0.00 0.00 0.00 94 1009.1
20260508051203 47 333 4.3 9.6 0.00 0.00 0.00 94 1009.1
20260508051103 47 334 4.3 9.6 0.00 0.00 0.00 94 1009.0
20260508050919 47 336 4.3 9.6 0.00 0.00 0.00 94 1009.1
20260508050903 47 338 4.3 9.6 0.00 0.00 0.00 94 1009.1
20260508050803 47 339 3.5 9.6 0.00 0.00 0.00 94 1009.1
20260508050603 47 340 3.5 6.1 0.00 0.00 0.00 94 1009.2
20260508050503 47 339 3.5 6.1 0.00 0.00 0.00 94 1009.0
20260508050403 47 340 3.5 7.0 0.00 0.00 0.00 93 1009.2
20260508050303 47 339 3.5 7.0 0.00 0.00 0.00 93 1009.2
20260508050203 47 340 3.5 8.7 0.00 0.00 0.00 93 1009.1
20260508050103 47 336 4.3 8.7 0.00 0.00 0.00 94 1009.1
20260508050003 47 333 4.3 8.7 0.00 0.00 0.00 94 1009.0
20260508045903 47 331 4.3 8.7 0.00 0.00 0.00 94 1009.0
20260508045803 47 330 4.3 8.7 0.00 0.00 0.00 94 1009.4
20260508045718 47 331 4.3 8.7 0.00 0.00 0.00 94 1009.1
20260508045703 47 330 4.3 8.7 0.00 0.00 0.00 94 1009.1
20260508045616 47 329 4.3 8.7 0.00 0.00 0.00 94 1009.2
20260508045603 47 329 4.3 8.7 0.00 0.00 0.00 94 1009.2
20260508045306 47 322 4.3 8.7 0.00 0.00 0.00 94 1009.1
20260508045203 47 320 4.3 8.7 0.00 0.00 0.00 94 1009.1
20260508045103 47 321 4.3 8.7 0.00 0.00 0.00 94 1009.0
20260508045003 47 322 3.5 7.8 0.00 0.00 0.00 94 1009.0
20260508044903 47 320 3.5 7.8 0.00 0.00 0.00 93 1009.1
20260508044803 47 320 3.5 7.8 0.00 0.00 0.00 94 1009.1
20260508044603 47 323 3.5 7.8 0.00 0.00 0.00 93 1009.2
20260508044503 47 326 3.5 7.8 0.00 0.00 0.00 93 1009.2
20260508044416 47 329 3.5 7.8 0.00 0.00 0.00 93 1009.1
20260508044403 47 329 3.5 7.8 0.00 0.00 0.00 93 1009.1
20260508044319 47 331 3.5 7.8 0.00 0.00 0.00 93 1009.2
20260508044303 47 330 3.5 7.8 0.00 0.00 0.00 93 1009.2
20260508044115 47 328 3.5 11.3 0.00 0.00 0.00 93 1009.2
20260508044003 47 332 3.5 11.3 0.00 0.00 0.00 93 1009.1
20260508043804 47 333 4.3 11.3 0.00 0.00 0.00 93 1009.2
20260508043718 47 335 4.3 11.3 0.00 0.00 0.00 93 1009.1
20260508043703 47 334 4.3 11.3 0.00 0.00 0.00 93 1009.1
20260508043603 47 331 4.3 11.3 0.00 0.00 0.00 93 1009.2
20260508043519 47 330 4.3 11.3 0.00 0.00 0.00 93 1009.3
20260508043316 47 331 4.3 11.3 0.00 0.00 0.00 93 1009.1
20260508043203 47 333 4.3 11.3 0.00 0.00 0.00 93 1009.2
20260508043003 47 332 4.3 11.3 0.00 0.00 0.00 93 1009.2
20260508042903 47 333 4.3 8.7 0.00 0.00 0.00 93 1009.1
20260508042803 47 335 3.5 8.7 0.00 0.00 0.00 93 1009.2
20260508042703 47 335 3.5 7.8 0.00 0.00 0.00 93 1009.0
20260508042503 47 337 3.5 7.8 0.00 0.00 0.00 93 1009.1
20260508042403 47 335 3.5 9.6 0.00 0.00 0.00 93 1009.1
20260508042318 47 336 3.5 9.6 0.00 0.00 0.00 93 1009.2
20260508042203 47 336 3.5 9.6 0.00 0.00 0.00 93 1009.0
20260508042003 47 334 3.5 9.6 0.00 0.00 0.00 93 1009.0
20260508041903 47 333 3.5 9.6 0.00 0.00 0.00 93 1009.1
20260508041803 47 331 3.5 9.6 0.00 0.00 0.00 93 1009.2
20260508041703 47 330 4.3 9.6 0.00 0.00 0.00 93 1009.1
20260508041603 47 332 3.5 9.6 0.00 0.00 0.00 93 1009.0
20260508041504 47 334 3.5 9.6 0.00 0.00 0.00 93 1009.0
20260508041418 47 335 3.5 9.6 0.00 0.00 0.00 93 1008.9
20260508041403 47 334 3.5 9.6 0.00 0.00 0.00 93 1008.9
20260508041303 47 334 4.3 9.6 0.00 0.00 0.00 93 1009.2
20260508041103 47 338 3.5 7.8 0.00 0.00 0.00 93 1009.1
20260508041016 47 340 3.5 7.8 0.00 0.00 0.00 93 1009.2
20260508041003 47 339 3.5 7.8 0.00 0.00 0.00 93 1009.2
20260508040918 47 342 3.5 7.8 0.00 0.00 0.00 93 1009.1
20260508040903 47 342 3.5 7.8 0.00 0.00 0.00 93 1009.1
20260508040603 47 344 4.3 13.9 0.00 0.00 0.00 93 1009.0
20260508040503 47 342 4.3 13.9 0.00 0.00 0.00 93 1009.0
20260508040403 47 342 5.2 13.9 0.00 0.00 0.00 93 1009.0
20260508040303 47 340 5.2 13.9 0.00 0.00 0.00 93 1009.0
20260508040203 47 338 5.2 13.9 0.00 0.00 0.00 93 1008.9
20260508040119 47 336 5.2 13.9 0.00 0.00 0.00 93 1009.0
20260508040003 47 335 5.2 13.9 0.00 0.00 0.00 93 1009.0
20260508035803 47 335 5.2 13.9 0.00 0.00 0.00 93 1008.8
20260508035703 47 334 5.2 13.9 0.00 0.00 0.00 93 1009.0
20260508035616 47 333 5.2 13.9 0.00 0.00 0.00 93 1009.0
20260508035603 47 334 5.2 13.9 0.00 0.00 0.00 93 1009.0
20260508035503 47 337 4.3 11.3 0.00 0.00 0.00 93 1008.9
20260508035306 47 342 5.2 10.4 0.00 0.00 0.00 93 1009.0
20260508035203 47 344 5.2 10.4 0.00 0.00 0.00 93 1009.0
20260508035103 47 345 5.2 10.4 0.00 0.00 0.00 93 1009.0
20260508035003 47 344 5.2 10.4 0.00 0.00 0.00 93 1009.1
20260508034903 47 343 5.2 10.4 0.00 0.00 0.00 92 1008.9
20260508034803 47 343 5.2 10.4 0.00 0.00 0.00 92 1008.9
20260508034703 47 341 5.2 10.4 0.00 0.00 0.00 92 1008.7
20260508034603 47 338 6.1 10.4 0.00 0.00 0.00 93 1009.1
20260508034517 47 337 6.1 10.4 0.00 0.00 0.00 93 1009.0
20260508034503 47 336 5.2 10.4 0.00 0.00 0.00 93 1009.0
20260508034403 47 335 5.2 10.4 0.00 0.00 0.00 93 1008.9
20260508034203 47 330 5.2 10.4 0.00 0.00 0.00 93 1008.9
20260508034119 47 330 5.2 10.4 0.00 0.00 0.00 93 1008.8
20260508034103 47 329 5.2 10.4 0.00 0.00 0.00 93 1008.8
20260508034003 47 328 5.2 10.4 0.00 0.00 0.00 93 1008.7
20260508033916 47 328 5.2 10.4 0.00 0.00 0.00 93 1009.0
20260508033803 47 325 5.2 10.4 0.00 0.00 0.00 93 1008.9
20260508033616 47 325 5.2 10.4 0.00 0.00 0.00 93 1008.7
20260508033603 47 324 5.2 10.4 0.00 0.00 0.00 93 1008.7
20260508033503 47 326 5.2 10.4 0.00 0.00 0.00 93 1008.8
20260508033417 47 327 5.2 10.4 0.00 0.00 0.00 93 1008.8
20260508033303 47 330 4.3 9.6 0.00 0.00 0.00 93 1008.7
20260508033103 47 332 4.3 8.7 0.00 0.00 0.00 93 1008.8
20260508033003 47 333 4.3 8.7 0.00 0.00 0.00 93 1008.7
20260508032903 47 336 4.3 8.7 0.00 0.00 0.00 93 1008.8
20260508032803 47 339 4.3 8.7 0.00 0.00 0.00 93 1008.8
20260508032703 47 338 4.3 8.7 0.00 0.00 0.00 93 1008.7
20260508032603 47 341 4.3 8.7 0.00 0.00 0.00 93 1008.9
20260508032503 47 338 4.3 8.7 0.00 0.00 0.00 93 1008.9
20260508032403 47 332 4.3 11.3 0.00 0.00 0.00 93 1008.8
20260508032306 47 328 4.3 11.3 0.00 0.00 0.00 93 1008.9
20260508032203 47 328 5.2 11.3 0.00 0.00 0.00 93 1008.9
20260508032103 47 328 5.2 11.3 0.00 0.00 0.00 93 1008.8
20260508032003 47 328 4.3 11.3 0.00 0.00 0.00 92 1008.8
20260508031916 47 327 4.3 11.3 0.00 0.00 0.00 92 1008.9
20260508031903 47 326 4.3 11.3 0.00 0.00 0.00 92 1008.9
20260508031603 47 325 4.3 11.3 0.00 0.00 0.00 92 1008.6
20260508031503 48 324 4.3 11.3 0.00 0.00 0.00 92 1008.8
20260508031403 48 327 4.3 11.3 0.00 0.00 0.00 92 1009.1
20260508031303 48 331 4.3 11.3 0.00 0.00 0.00 92 1008.9
20260508031203 48 328 4.3 9.6 0.00 0.00 0.00 92 1008.7
20260508031117 48 325 3.5 9.6 0.00 0.00 0.00 92 1008.9
20260508030803 48 321 4.3 9.6 0.00 0.00 0.00 91 1009.0
20260508030703 48 319 4.3 9.6 0.00 0.00 0.00 91 1008.7
20260508030603 48 321 4.3 8.7 0.00 0.00 0.00 91 1008.9
20260508030503 48 322 4.3 8.7 0.00 0.00 0.00 91 1009.0
20260508030403 48 319 4.3 8.7 0.00 0.00 0.00 91 1008.9
20260508030303 48 318 4.3 8.7 0.00 0.00 0.00 91 1009.0
20260508030203 48 321 4.3 8.7 0.00 0.00 0.00 91 1008.9
20260508030103 48 323 4.3 8.7 0.00 0.00 0.00 91 1008.9
20260508030003 48 327 4.3 8.7 0.00 0.00 0.00 91 1008.7
20260508025903 48 328 4.3 7.8 0.00 0.00 0.00 91 1008.9
20260508025819 48 329 4.3 7.8 0.00 0.00 0.00 91 1008.8
20260508025803 48 330 4.3 7.8 0.00 0.00 0.00 91 1008.8
20260508025703 48 331 4.3 7.8 0.00 0.00 0.00 91 1008.9
20260508025503 48 336 4.3 7.8 0.00 0.00 0.00 91 1008.8
20260508025403 48 339 4.3 7.8 0.00 0.00 0.00 91 1009.1
20260508025306 48 339 4.3 8.7 0.00 0.00 0.00 91 1008.7
20260508025203 48 341 4.3 9.6 0.00 0.00 0.00 91 1008.8
20260508025103 48 341 4.3 9.6 0.00 0.00 0.00 91 1008.7
20260508025003 48 343 4.3 9.6 0.00 0.00 0.00 91 1008.8
20260508024903 48 345 4.3 9.6 0.00 0.00 0.00 91 1008.6
20260508024803 48 344 4.3 9.6 0.00 0.00 0.00 91 1008.9
20260508024719 48 339 3.5 9.6 0.00 0.00 0.00 91 1009.0
20260508024703 48 338 3.5 9.6 0.00 0.00 0.00 91 1009.0
20260508024618 48 340 3.5 9.6 0.00 0.00 0.00 91 1008.8
20260508024603 48 341 3.5 9.6 0.00 0.00 0.00 91 1008.8
20260508024303 48 342 4.3 9.6 0.00 0.00 0.00 90 1008.7
20260508024203 48 341 4.3 9.6 0.00 0.00 0.00 90 1008.9
20260508024119 48 341 4.3 9.6 0.00 0.00 0.00 91 1008.7
20260508024103 48 341 4.3 8.7 0.00 0.00 0.00 91 1008.7
20260508024018 48 337 4.3 9.6 0.00 0.00 0.00 90 1008.8
20260508024003 48 336 4.3 9.6 0.00 0.00 0.00 90 1008.8
20260508023916 48 331 4.3 9.6 0.00 0.00 0.00 90 1008.7
20260508023717 48 329 4.3 9.6 0.00 0.00 0.00 91 1008.8
20260508023616 48 326 4.3 9.6 0.00 0.00 0.00 91 1008.6
20260508023603 48 325 4.3 9.6 0.00 0.00 0.00 91 1008.6
20260508023303 48 318 4.3 9.6 0.00 0.00 0.00 91 1008.6
20260508023203 48 316 3.5 9.6 0.00 0.00 0.00 91 1008.6
20260508023103 48 316 3.5 9.6 0.00 0.00 0.00 91 1008.6
20260508023003 48 316 3.5 9.6 0.00 0.00 0.00 91 1008.7
20260508022918 48 319 4.3 9.6 0.00 0.00 0.00 91 1008.3
20260508022903 48 321 4.3 9.6 0.00 0.00 0.00 91 1008.3
20260508022803 48 324 4.3 9.6 0.00 0.00 0.00 91 1008.6
20260508022603 48 325 4.3 9.6 0.00 0.00 0.00 91 1008.6
20260508022503 48 326 4.3 9.6 0.00 0.00 0.00 91 1008.7
20260508022403 48 328 4.3 9.6 0.00 0.00 0.00 91 1008.5
20260508022306 48 330 4.3 9.6 0.00 0.00 0.00 91 1008.5
20260508022203 48 331 4.3 9.6 0.00 0.00 0.00 91 1008.5
20260508022119 48 331 4.3 9.6 0.00 0.00 0.00 91 1008.6
20260508022103 48 330 4.3 9.6 0.00 0.00 0.00 91 1008.6
20260508021803 48 337 3.5 9.6 0.00 0.00 0.00 91 1008.4
20260508021703 48 340 4.3 9.6 0.00 0.00 0.00 90 1008.5
20260508021603 48 341 4.3 9.6 0.00 0.00 0.00 90 1008.6
20260508021503 48 339 4.3 9.6 0.00 0.00 0.00 90 1008.6
20260508021417 48 341 4.3 9.6 0.00 0.00 0.00 91 1008.7
20260508021403 48 342 4.3 9.6 0.00 0.00 0.00 91 1008.7
20260508021303 48 343 4.3 9.6 0.00 0.00 0.00 91 1008.5
20260508021103 48 345 4.3 9.6 0.00 0.00 0.00 91 1008.6
20260508021003 48 346 4.3 10.4 0.00 0.00 0.00 91 1008.5
20260508020903 48 347 4.3 10.4 0.00 0.00 0.00 91 1008.6
20260508020803 48 347 4.3 10.4 0.00 0.00 0.00 90 1008.5
20260508020703 48 348 4.3 10.4 0.00 0.00 0.00 90 1008.6
20260508020603 48 349 4.3 10.4 0.00 0.00 0.00 90 1008.6
20260508020503 48 351 4.3 10.4 0.00 0.00 0.00 90 1008.5
20260508020403 48 349 4.3 10.4 0.00 0.00 0.00 90 1008.5
20260508020303 48 349 4.3 10.4 0.00 0.00 0.00 90 1008.4
20260508020203 48 349 4.3 10.4 0.00 0.00 0.00 90 1008.6
20260508020103 48 348 5.2 10.4 0.00 0.00 0.00 90 1008.5
20260508020003 48 349 5.2 10.4 0.00 0.00 0.00 91 1008.6
20260508015903 48 348 5.2 10.4 0.00 0.00 0.00 91 1008.7
20260508015803 48 349 4.3 9.6 0.00 0.00 0.00 91 1008.5
20260508015603 48 345 4.3 9.6 0.00 0.00 0.00 91 1008.4
20260508015503 48 344 5.2 9.6 0.00 0.00 0.00 90 1008.6
20260508015403 48 344 5.2 9.6 0.00 0.00 0.00 90 1008.7
20260508015305 48 341 5.2 9.6 0.00 0.00 0.00 91 1008.5
20260508015218 48 341 5.2 9.6 0.00 0.00 0.00 91 1008.5
20260508015117 48 342 5.2 9.6 0.00 0.00 0.00 91 1008.7
20260508015103 48 341 5.2 9.6 0.00 0.00 0.00 91 1008.7
20260508014803 48 339 5.2 9.6 0.00 0.00 0.00 91 1008.4
20260508014703 48 338 4.3 9.6 0.00 0.00 0.00 91 1008.6
20260508014603 48 337 4.3 8.7 0.00 0.00 0.00 90 1008.7
20260508014503 48 334 4.3 10.4 0.00 0.00 0.00 91 1008.5
20260508014403 48 332 4.3 10.4 0.00 0.00 0.00 91 1008.6
20260508014303 48 332 4.3 10.4 0.00 0.00 0.00 90 1008.7
20260508014203 48 331 4.3 10.4 0.00 0.00 0.00 90 1008.6
20260508014103 48 330 4.3 10.4 0.00 0.00 0.00 90 1008.4
20260508014003 48 330 4.3 10.4 0.00 0.00 0.00 90 1008.7
20260508013903 48 330 4.3 10.4 0.00 0.00 0.00 90 1008.7
20260508013803 48 331 4.3 10.4 0.00 0.00 0.00 90 1008.6
20260508013703 48 329 4.3 10.4 0.00 0.00 0.00 90 1008.5
20260508013603 48 329 5.2 10.4 0.00 0.00 0.00 90 1008.4
20260508013503 48 329 5.2 10.4 0.00 0.00 0.00 90 1008.5
20260508013403 48 328 5.2 10.4 0.00 0.00 0.00 90 1008.6
20260508013303 48 328 4.3 9.6 0.00 0.00 0.00 90 1008.7
20260508013103 48 328 4.3 8.7 0.00 0.00 0.00 90 1008.6
20260508013019 48 328 4.3 8.7 0.00 0.00 0.00 90 1008.6
20260508013003 48 327 4.3 8.7 0.00 0.00 0.00 90 1008.6
20260508012917 48 328 4.3 8.7 0.00 0.00 0.00 90 1008.6
20260508012903 48 329 4.3 8.7 0.00 0.00 0.00 90 1008.6
20260508012719 48 328 5.2 8.7 0.00 0.00 0.00 90 1008.6
20260508012603 48 332 5.2 8.7 0.00 0.00 0.00 90 1008.7
20260508012403 48 336 5.2 8.7 0.00 0.00 0.00 89 1008.6
20260508012307 48 338 5.2 8.7 0.00 0.00 0.00 89 1008.8
20260508012203 48 340 5.2 8.7 0.00 0.00 0.00 89 1008.5
20260508012003 48 339 5.2 8.7 0.00 0.00 0.00 89 1008.8
20260508011903 48 341 5.2 8.7 0.00 0.00 0.00 89 1008.9
20260508011803 48 341 5.2 8.7 0.00 0.00 0.00 89 1008.6
20260508011703 48 340 4.3 8.7 0.00 0.00 0.00 89 1008.7
20260508011603 48 343 4.3 8.7 0.00 0.00 0.00 89 1008.6
20260508011518 48 344 4.3 8.7 0.00 0.00 0.00 89 1008.6
20260508011503 48 345 4.3 8.7 0.00 0.00 0.00 89 1008.6
20260508011416 48 344 4.3 8.7 0.00 0.00 0.00 89 1008.5
20260508011403 48 343 4.3 8.7 0.00 0.00 0.00 89 1008.5
20260508011218 48 343 4.3 7.0 0.00 0.00 0.00 89 1008.7
20260508011103 48 343 3.5 7.0 0.00 0.00 0.00 89 1008.5
20260508010903 48 345 4.3 8.7 0.00 0.00 0.00 89 1008.7
20260508010803 48 345 4.3 8.7 0.00 0.00 0.00 89 1008.7
20260508010718 48 347 4.3 8.7 0.00 0.00 0.00 89 1008.8
20260508010703 48 347 4.3 9.6 0.00 0.00 0.00 89 1008.8
20260508010603 48 346 4.3 9.6 0.00 0.00 0.00 89 1008.8
20260508010403 48 346 5.2 9.6 0.00 0.00 0.00 89 1008.9
20260508010303 48 346 4.3 9.6 0.00 0.00 0.00 89 1008.8
20260508010203 48 345 4.3 9.6 0.00 0.00 0.00 89 1008.8
20260508010003 48 345 4.3 9.6 0.00 0.00 0.00 89 1008.9
20260508005903 48 342 4.3 9.6 0.00 0.00 0.00 89 1008.9
20260508005803 48 341 4.3 9.6 0.00 0.00 0.00 89 1009.1
20260508005703 48 342 4.3 9.6 0.00 0.00 0.00 89 1008.8
20260508005603 48 340 4.3 9.6 0.00 0.00 0.00 89 1008.8
20260508005403 48 334 3.5 7.8 0.00 0.00 0.00 89 1008.9
20260508005305 48 330 4.3 7.8 0.00 0.00 0.00 89 1008.9
20260508005203 48 329 3.5 7.8 0.00 0.00 0.00 89 1008.9
20260508005103 48 328 4.3 10.4 0.00 0.00 0.00 89 1008.8
20260508005003 48 325 4.3 10.4 0.00 0.00 0.00 89 1008.8
20260508004903 48 321 4.3 10.4 0.00 0.00 0.00 89 1008.9
20260508004803 48 316 4.3 10.4 0.00 0.00 0.00 89 1009.1
20260508004703 48 313 4.3 10.4 0.00 0.00 0.00 89 1008.7
20260508004603 48 313 4.3 10.4 0.00 0.00 0.00 89 1009.0
20260508004503 48 312 4.3 10.4 0.00 0.00 0.00 89 1008.9
20260508004403 48 312 3.5 10.4 0.00 0.00 0.00 89 1008.8
20260508004303 48 313 3.5 10.4 0.00 0.00 0.00 89 1008.8
20260508004203 48 314 4.3 10.4 0.00 0.00 0.00 89 1008.9
20260508004003 48 310 3.5 10.4 0.00 0.00 0.00 89 1009.0
20260508003903 48 314 3.5 7.8 0.00 0.00 0.00 89 1008.7
20260508003803 48 315 3.5 7.8 0.00 0.00 0.00 89 1008.8
20260508003703 48 317 3.5 7.8 0.00 0.00 0.00 89 1008.8
20260508003603 48 317 3.5 7.8 0.00 0.00 0.00 89 1008.8
20260508003503 48 320 3.5 7.8 0.00 0.00 0.00 89 1008.9
20260508003303 48 327 3.5 7.8 0.00 0.00 0.00 89 1008.9
20260508003203 48 330 3.5 7.8 0.00 0.00 0.00 89 1008.8
20260508003103 48 328 3.5 7.8 0.00 0.00 0.00 89 1008.8
20260508003003 48 329 3.5 7.8 0.00 0.00 0.00 89 1008.9
20260508002903 48 333 3.5 7.8 0.00 0.00 0.00 89 1008.9
20260508002803 48 333 3.5 7.8 0.00 0.00 0.00 89 1008.9
20260508002703 48 332 4.3 7.8 0.00 0.00 0.00 89 1008.7
20260508002603 48 333 3.5 9.6 0.00 0.00 0.00 89 1008.9
20260508002503 48 332 4.3 9.6 0.00 0.00 0.00 89 1008.9
20260508002403 48 332 4.3 9.6 0.00 0.00 0.00 89 1008.8
20260508002306 48 331 4.3 9.6 0.00 0.00 0.00 89 1008.7
20260508002203 48 329 4.3 9.6 0.00 0.00 0.00 89 1008.9
20260508002103 48 331 4.3 9.6 0.00 0.00 0.00 89 1008.6
20260508002003 48 331 4.3 11.3 0.00 0.00 0.00 89 1008.8
20260508001903 48 331 5.2 11.3 0.00 0.00 0.00 90 1008.7
20260508001803 48 333 5.2 11.3 0.00 0.00 0.00 90 1008.5
20260508001703 48 334 5.2 11.3 0.00 0.00 0.00 89 1008.7
20260508001603 48 336 5.2 11.3 0.00 0.00 0.00 89 1008.6
20260508001503 48 336 5.2 11.3 0.00 0.00 0.00 89 1008.7
20260508001403 48 334 5.2 11.3 0.00 0.00 0.00 89 1008.8
20260508001303 48 332 5.2 11.3 0.00 0.00 0.00 89 1008.6
20260508001203 48 332 5.2 11.3 0.00 0.00 0.00 89 1008.5
20260508001103 48 333 4.3 11.3 0.00 0.00 0.00 89 1008.8
20260508001003 48 335 4.3 11.3 0.00 0.00 0.00 89 1008.7
20260508000903 48 335 4.3 11.3 0.00 0.00 0.00 89 1008.6
20260508000803 48 335 4.3 10.4 0.00 0.00 0.00 89 1008.8
20260508000703 48 333 4.3 10.4 0.00 0.00 0.00 89 1008.6
20260508000603 48 330 4.3 10.4 0.00 0.00 0.00 89 1008.6
20260508000503 48 331 4.3 10.4 0.00 0.00 0.00 89 1008.5
20260508000404 48 333 4.3 8.7 0.00 0.00 0.00 89 1008.7
20260508000305 48 335 4.3 8.7 0.00 0.00 0.00 89 1008.9
20260508000204 48 337 4.3 8.7 0.00 0.00 0.00 89 1008.7
20260508000017 49 341 4.3 8.7 0.00 0.00 0.00 89 1008.6
20260508000004 49 341 3.5 8.7 0.00 0.00 0.00 89 1008.6
20260507235903 48 342 3.5 8.7 0.00 0.00 0.00 89 1008.7
20260507235703 48 347 3.5 8.7 0.00 0.00 0.00 89 1008.6
20260507235603 48 346 4.3 9.6 0.00 0.00 0.00 89 1008.8
20260507235503 49 344 4.3 9.6 0.00 0.00 0.00 89 1008.8
20260507235403 48 344 4.3 9.6 0.00 0.00 0.00 89 1008.8
20260507235306 48 343 4.3 9.6 0.00 0.00 0.00 89 1008.9
20260507235203 48 342 4.3 9.6 0.00 0.00 0.00 89 1008.8
20260507235103 48 342 4.3 9.6 0.00 0.00 0.00 89 1008.7
20260507235003 48 341 4.3 9.6 0.00 0.00 0.00 89 1008.9
20260507234903 48 341 4.3 9.6 0.00 0.00 0.00 89 1008.9
20260507234803 48 341 4.3 9.6 0.00 0.00 0.00 89 1008.8
20260507234703 48 341 4.3 9.6 0.00 0.00 0.00 89 1008.7
20260507234603 48 342 4.3 9.6 0.00 0.00 0.00 89 1008.8
20260507234503 48 343 4.3 9.6 0.00 0.00 0.00 89 1008.6
20260507234403 48 343 4.3 7.8 0.00 0.00 0.00 89 1008.6
20260507234303 48 340 4.3 7.8 0.00 0.00 0.00 89 1009.0
20260507234203 48 336 4.3 7.8 0.00 0.00 0.00 89 1008.9
20260507234103 48 334 4.3 7.8 0.00 0.00 0.00 89 1009.0
20260507234016 48 334 4.3 7.8 0.00 0.00 0.00 89 1008.7
20260507233703 48 328 4.3 7.8 0.00 0.00 0.00 89 1008.8
20260507233603 48 327 3.5 8.7 0.00 0.00 0.00 89 1008.6
20260507233503 48 326 4.3 8.7 0.00 0.00 0.00 89 1008.7
20260507233403 48 328 4.3 8.7 0.00 0.00 0.00 89 1008.8
20260507233303 48 330 4.3 8.7 0.00 0.00 0.00 89 1008.9
20260507233217 48 332 4.3 8.7 0.00 0.00 0.00 89 1008.9
20260507233203 48 333 4.3 8.7 0.00 0.00 0.00 89 1008.9
20260507233103 48 333 4.3 8.7 0.00 0.00 0.00 89 1008.9
20260507232803 48 330 4.3 9.6 0.00 0.00 0.00 89 1009.0
20260507232703 49 332 4.3 9.6 0.00 0.00 0.00 89 1008.8
20260507232603 48 333 4.3 9.6 0.00 0.00 0.00 89 1008.7
20260507232503 48 333 4.3 9.6 0.00 0.00 0.00 88 1008.9
20260507232403 48 334 4.3 9.6 0.00 0.00 0.00 88 1008.9
20260507232306 48 334 4.3 10.4 0.00 0.00 0.00 88 1008.7
20260507232219 49 333 4.3 10.4 0.00 0.00 0.00 88 1008.8
20260507232203 49 332 4.3 10.4 0.00 0.00 0.00 88 1008.8
20260507232103 49 329 5.2 10.4 0.00 0.00 0.00 88 1008.7
20260507232016 49 327 5.2 10.4 0.00 0.00 0.00 88 1008.6
20260507231903 49 328 5.2 10.4 0.00 0.00 0.00 88 1008.6
20260507231703 49 328 5.2 10.4 0.00 0.00 0.00 88 1008.7
20260507231603 49 328 5.2 10.4 0.00 0.00 0.00 88 1008.7
20260507231503 49 329 5.2 10.4 0.00 0.00 0.00 88 1008.5
20260507231403 49 329 5.2 10.4 0.00 0.00 0.00 88 1008.7
20260507231318 49 328 5.2 10.4 0.00 0.00 0.00 88 1008.5
20260507231303 49 327 5.2 10.4 0.00 0.00 0.00 88 1008.5
20260507231203 49 328 5.2 10.4 0.00 0.00 0.00 88 1008.7
20260507231003 49 334 4.3 9.6 0.00 0.00 0.00 87 1008.6
20260507230903 49 330 4.3 9.6 0.00 0.00 0.00 88 1008.8
20260507230803 49 327 4.3 9.6 0.00 0.00 0.00 88 1008.6
20260507230703 49 325 4.3 9.6 0.00 0.00 0.00 88 1008.6
20260507230616 49 320 4.3 9.6 0.00 0.00 0.00 88 1008.6
20260507230603 49 319 4.3 9.6 0.00 0.00 0.00 88 1008.6
20260507230503 49 316 4.3 9.6 0.00 0.00 0.00 88 1008.7
20260507230303 49 313 4.3 9.6 0.00 0.00 0.00 88 1008.9
20260507230219 49 310 4.3 9.6 0.00 0.00 0.00 88 1008.8
20260507230203 49 309 4.3 9.6 0.00 0.00 0.00 88 1008.8
20260507225903 49 311 4.3 7.8 0.00 0.00 0.00 88 1008.9
20260507225803 49 312 4.3 7.8 0.00 0.00 0.00 87 1008.9
20260507225703 49 317 3.5 7.8 0.00 0.00 0.00 88 1008.9
20260507225603 49 322 3.5 7.8 0.00 0.00 0.00 88 1008.8
20260507225503 49 326 3.5 7.8 0.00 0.00 0.00 88 1008.8
20260507225403 49 326 3.5 7.8 0.00 0.00 0.00 88 1008.9
20260507225306 49 331 3.5 7.8 0.00 0.00 0.00 88 1008.8
20260507225203 49 338 3.5 7.8 0.00 0.00 0.00 88 1009.0
20260507225119 49 342 3.5 7.8 0.00 0.00 0.00 88 1008.8
20260507225103 49 342 3.5 7.8 0.00 0.00 0.00 87 1008.7
20260507225003 49 344 3.5 7.8 0.00 0.00 0.00 87 1008.7
20260507224718 49 346 3.5 7.8 0.00 0.00 0.00 87 1008.8
20260507224703 49 345 3.5 7.8 0.00 0.00 0.00 87 1008.8
20260507224603 49 342 4.3 8.7 0.00 0.00 0.00 88 1008.9
20260507224519 49 342 4.3 8.7 0.00 0.00 0.00 87 1008.6
20260507224403 49 338 4.3 8.7 0.00 0.00 0.00 87 1008.9
20260507224203 49 330 4.3 8.7 0.00 0.00 0.00 88 1008.9
20260507224103 49 331 4.3 8.7 0.00 0.00 0.00 87 1008.9
20260507224003 49 331 4.3 8.7 0.00 0.00 0.00 87 1008.8
20260507223903 49 331 4.3 8.7 0.00 0.00 0.00 88 1008.8
20260507223715 49 332 4.3 8.7 0.00 0.00 0.00 87 1008.7
20260507223703 49 332 4.3 8.7 0.00 0.00 0.00 88 1008.7
20260507223603 49 334 4.3 8.7 0.00 0.00 0.00 87 1008.7
20260507223403 49 336 3.5 8.7 0.00 0.00 0.00 87 1008.7
20260507223303 49 339 4.3 8.7 0.00 0.00 0.00 87 1008.7
20260507223203 49 341 4.3 8.7 0.00 0.00 0.00 87 1008.6
20260507223103 49 338 4.3 8.7 0.00 0.00 0.00 87 1008.6
20260507223003 49 338 4.3 8.7 0.00 0.00 0.00 87 1008.9
20260507222903 49 336 4.3 7.8 0.00 0.00 0.00 87 1008.8
20260507222803 49 335 4.3 7.8 0.00 0.00 0.00 87 1008.6
20260507222703 49 335 4.3 7.8 0.00 0.00 0.00 87 1008.4
20260507222603 49 334 4.3 7.8 0.00 0.00 0.00 87 1008.4
20260507222503 49 332 4.3 8.7 0.00 0.00 0.00 87 1008.7
20260507222403 49 331 4.3 8.7 0.00 0.00 0.00 87 1008.7
20260507222316 49 329 4.3 8.7 0.00 0.00 0.00 88 1008.5
20260507222306 49 330 4.3 8.7 0.00 0.00 0.00 88 1008.5
20260507222219 49 331 4.3 8.7 0.00 0.00 0.00 88 1008.7
20260507222203 49 331 4.3 8.7 0.00 0.00 0.00 87 1008.7
20260507222117 49 332 4.3 8.7 0.00 0.00 0.00 87 1008.7
20260507222016 49 334 4.3 11.3 0.00 0.00 0.00 87 1008.7
20260507221703 49 339 4.3 11.3 0.00 0.00 0.00 87 1008.8
20260507221603 49 337 4.3 11.3 0.00 0.00 0.00 87 1008.4
20260507221503 49 338 4.3 11.3 0.00 0.00 0.00 87 1008.7
20260507221419 49 340 4.3 11.3 0.00 0.00 0.00 87 1008.7
20260507221303 49 341 4.3 11.3 0.00 0.00 0.00 87 1008.6
20260507221103 49 338 4.3 11.3 0.00 0.00 0.00 88 1008.4
20260507221003 49 337 4.3 11.3 0.00 0.00 0.00 88 1008.7
20260507220916 49 333 4.3 11.3 0.00 0.00 0.00 88 1008.6
20260507220903 49 332 4.3 11.3 0.00 0.00 0.00 88 1008.6
20260507220803 49 330 4.3 7.8 0.00 0.00 0.00 88 1008.6
20260507220717 49 331 4.3 10.4 0.00 0.00 0.00 87 1008.6
20260507220603 49 331 4.3 10.4 0.00 0.00 0.00 88 1008.6
20260507220403 49 334 4.3 11.3 0.00 0.00 0.00 88 1008.6
20260507220303 49 333 4.3 11.3 0.00 0.00 0.00 88 1008.6
20260507220203 49 334 5.2 11.3 0.00 0.00 0.00 88 1008.6
20260507220003 49 337 5.2 11.3 0.00 0.00 0.00 88 1008.6
20260507215903 49 340 5.2 11.3 0.00 0.00 0.00 88 1008.7
20260507215719 49 342 6.1 11.3 0.00 0.00 0.00 88 1008.6
20260507215703 49 341 6.1 11.3 0.00 0.00 0.00 88 1008.6
20260507215618 49 342 6.1 11.3 0.00 0.00 0.00 88 1008.5
20260507215603 49 341 6.1 11.3 0.00 0.00 0.00 88 1008.5
20260507215306 49 340 6.1 11.3 0.00 0.00 0.00 88 1008.8
20260507215203 49 340 6.1 11.3 0.00 0.00 0.00 88 1008.8
20260507215103 49 339 6.1 11.3 0.00 0.00 0.00 88 1008.6
20260507214903 49 335 6.1 11.3 0.00 0.00 0.00 88 1008.7
20260507214803 49 331 6.1 11.3 0.00 0.00 0.00 88 1008.5
20260507214603 49 330 5.2 11.3 0.00 0.00 0.00 87 1008.5
20260507214503 49 330 5.2 11.3 0.00 0.00 0.00 87 1008.6
20260507214403 49 330 5.2 11.3 0.00 0.00 0.00 87 1008.5
20260507214303 49 331 5.2 11.3 0.00 0.00 0.00 87 1008.5
20260507214203 49 330 5.2 11.3 0.00 0.00 0.00 87 1008.2
20260507214103 49 330 5.2 11.3 0.00 0.00 0.00 87 1008.5
20260507214003 49 330 4.3 10.4 0.00 0.00 0.00 87 1008.6
20260507213903 50 330 5.2 10.4 0.00 0.00 0.00 87 1008.5
20260507213803 50 333 5.2 10.4 0.00 0.00 0.00 87 1008.7
20260507213703 50 335 5.2 10.4 0.00 0.00 0.00 87 1008.6
20260507213603 50 339 5.2 10.4 0.00 0.00 0.00 87 1008.6
20260507213503 50 339 5.2 10.4 0.00 0.00 0.00 87 1008.6
20260507213419 50 338 5.2 10.4 0.00 0.00 0.00 87 1008.5
20260507213403 50 338 6.1 10.4 0.00 0.00 0.00 87 1008.5
20260507213103 50 340 6.1 10.4 0.00 0.00 0.00 87 1008.5
20260507213003 50 342 6.1 10.4 0.00 0.00 0.00 86 1008.4
20260507212905 50 344 6.1 10.4 0.00 0.00 0.00 87 1008.8
20260507212803 50 343 6.1 10.4 0.00 0.00 0.00 86 1008.5
20260507212717 50 343 5.2 10.4 0.00 0.00 0.00 86 1008.5
20260507212703 50 342 5.2 10.4 0.00 0.00 0.00 86 1008.5
20260507212603 50 340 5.2 10.4 0.00 0.00 0.00 86 1008.5
20260507212403 50 340 5.2 10.4 0.00 0.00 0.00 86 1008.6
20260507212306 50 338 5.2 10.4 0.00 0.00 0.00 86 1008.4
20260507212203 50 336 5.2 10.4 0.00 0.00 0.00 86 1008.4
20260507212103 50 334 5.2 9.6 0.00 0.00 0.00 86 1008.3
20260507212003 50 333 5.2 9.6 0.00 0.00 0.00 86 1008.3
20260507211903 50 332 5.2 9.6 0.00 0.00 0.00 86 1008.6
20260507211803 50 331 5.2 9.6 0.00 0.00 0.00 86 1008.4
20260507211703 50 330 5.2 9.6 0.00 0.00 0.00 86 1008.3
20260507211603 50 329 5.2 9.6 0.00 0.00 0.00 86 1008.3
20260507211503 50 328 5.2 9.6 0.00 0.00 0.00 86 1008.4
20260507211419 50 327 5.2 9.6 0.00 0.00 0.00 86 1008.3
20260507211403 50 327 4.3 9.6 0.00 0.00 0.00 86 1008.3
20260507211303 50 327 4.3 9.6 0.00 0.00 0.00 86 1008.3
20260507211103 50 324 4.3 9.6 0.00 0.00 0.00 86 1008.7
20260507211003 50 325 3.5 9.6 0.00 0.00 0.00 86 1008.4
20260507210916 50 324 3.5 9.6 0.00 0.00 0.00 87 1008.7
20260507210903 50 326 3.5 9.6 0.00 0.00 0.00 87 1008.7
20260507210803 50 326 3.5 9.6 0.00 0.00 0.00 87 1008.5
20260507210603 50 331 2.6 6.1 0.00 0.00 0.00 86 1008.7
20260507210503 50 331 3.5 6.1 0.00 0.00 0.00 86 1008.6
20260507210403 50 332 3.5 6.1 0.00 0.00 0.00 86 1008.6
20260507210303 50 331 3.5 6.1 0.00 0.00 0.00 86 1008.5
20260507210203 50 332 3.5 7.0 0.00 0.00 0.00 86 1008.4
20260507210117 50 334 3.5 7.0 0.00 0.00 0.00 86 1008.4
20260507210103 50 335 3.5 7.0 0.00 0.00 0.00 86 1008.4
20260507210003 50 334 3.5 10.4 0.00 0.00 0.00 86 1008.3
20260507205803 50 330 4.3 10.4 0.00 0.00 0.00 86 1008.3
20260507205703 50 331 4.3 10.4 0.00 0.00 0.00 86 1008.3
20260507205603 50 330 4.3 10.4 0.00 0.00 0.00 86 1008.3
20260507205516 50 331 4.3 11.3 0.00 0.00 0.00 86 1008.3
20260507205503 50 331 4.3 11.3 0.00 0.00 0.00 86 1008.4
20260507205403 50 332 5.2 11.3 0.00 0.00 0.00 85 1008.4
20260507205203 50 333 5.2 11.3 0.00 0.00 0.00 85 1008.3
20260507205103 50 332 5.2 11.3 0.00 0.00 0.00 85 1008.3
20260507205003 50 333 5.2 11.3 0.00 0.00 0.00 85 1008.2
20260507204903 50 334 5.2 11.3 0.00 0.00 0.00 85 1008.4
20260507204803 50 335 5.2 11.3 0.00 0.00 0.00 85 1008.4
20260507204717 50 335 4.3 11.3 0.00 0.00 0.00 85 1008.2
20260507204703 50 334 4.3 11.3 0.00 0.00 0.00 85 1008.2
20260507204603 50 333 4.3 11.3 0.00 0.00 0.00 85 1008.2
20260507204403 50 328 4.3 11.3 0.00 0.00 0.00 85 1008.2
20260507204303 50 326 4.3 8.7 0.00 0.00 0.00 85 1008.1
20260507204203 50 325 4.3 8.7 0.00 0.00 0.00 85 1008.1
20260507204103 50 325 4.3 8.7 0.00 0.00 0.00 85 1008.1
20260507204003 50 325 4.3 8.7 0.00 0.00 0.00 85 1008.2
20260507203918 50 324 4.3 8.7 0.00 0.00 0.00 85 1008.4
20260507203903 50 323 4.3 8.7 0.00 0.00 0.00 85 1008.4
20260507203803 50 324 4.3 8.7 0.00 0.00 0.00 86 1008.2
20260507203603 50 324 4.3 8.7 0.00 0.00 0.00 85 1008.4
20260507203516 50 321 4.3 8.7 0.00 0.00 0.00 84 1008.3
20260507203503 50 321 4.3 9.6 0.00 0.00 0.00 84 1008.1
20260507203403 50 323 4.3 9.6 0.00 0.00 0.00 85 1008.1
20260507203216 50 321 4.3 9.6 0.00 0.00 0.00 85 1008.3
20260507203203 51 322 4.3 9.6 0.00 0.00 0.00 85 1008.4
20260507203103 51 321 4.3 9.6 0.00 0.00 0.00 85 1008.4
20260507202903 50 323 4.3 9.6 0.00 0.00 0.00 85 1008.4
20260507202803 51 324 4.3 9.6 0.00 0.00 0.00 85 1008.4
20260507202703 51 324 3.5 9.6 0.00 0.00 0.00 85 1008.5
20260507202503 51 331 3.5 9.6 0.00 0.00 0.00 84 1008.4
20260507202403 51 332 3.5 9.6 0.00 0.00 0.00 85 1008.5
20260507202306 51 332 3.5 9.6 0.00 0.00 0.00 84 1008.5
20260507202218 51 334 3.5 9.6 0.00 0.00 0.00 84 1008.6
20260507202203 51 335 3.5 9.6 0.00 0.00 0.00 84 1008.6
20260507202103 51 337 4.3 9.6 0.00 0.00 0.00 85 1008.4
20260507201903 51 336 4.3 9.6 0.00 0.00 0.00 85 1008.4
20260507201803 51 337 4.3 9.6 0.00 0.00 0.00 85 1008.4
20260507201703 51 337 4.3 9.6 0.00 0.00 0.00 85 1008.4
20260507201603 51 336 5.2 9.6 0.00 0.00 0.00 85 1008.3
20260507201503 51 337 5.2 9.6 0.00 0.00 0.00 85 1008.3
20260507201403 51 339 4.3 9.6 0.00 0.00 0.00 85 1008.3
20260507201303 51 341 4.3 9.6 0.00 0.00 0.00 85 1008.4
20260507201203 51 338 4.3 9.6 0.00 0.00 0.00 85 1008.1
20260507201103 51 335 4.3 9.6 0.00 0.00 0.00 85 1008.1
20260507201003 51 334 4.3 7.8 0.00 0.00 0.00 85 1008.3
20260507200903 51 333 3.5 7.8 0.00 0.00 0.00 85 1008.1
20260507200803 51 332 4.3 7.8 0.00 0.00 0.00 85 1008.1
20260507200717 51 331 4.3 7.0 0.00 0.00 0.00 85 1008.0
20260507200703 51 330 3.5 7.8 0.00 0.00 0.00 85 1008.0
20260507200603 51 330 3.5 8.7 0.00 0.00 0.00 85 1008.0
20260507200403 51 330 4.3 8.7 0.00 0.00 0.00 85 1007.9
20260507200303 51 327 4.3 8.7 0.00 0.00 0.00 85 1007.9
20260507200203 51 328 4.3 8.7 0.00 0.00 0.00 85 1007.8
20260507200103 51 329 4.3 8.7 0.00 0.00 0.00 85 1007.7
20260507200003 51 328 4.3 8.7 0.00 0.00 0.00 85 1007.7
20260507195903 51 329 4.3 8.7 0.00 0.00 0.00 85 1008.1
20260507195803 51 331 4.3 8.7 0.00 0.00 0.00 85 1007.8
20260507195703 51 330 4.3 8.7 0.00 0.00 0.00 85 1008.0
20260507195604 51 331 4.3 8.7 0.00 0.00 0.00 85 1008.0
20260507195503 51 329 4.3 9.6 0.00 0.00 0.00 85 1007.6
20260507195403 51 331 4.3 9.6 0.00 0.00 0.00 85 1007.9
20260507195317 51 334 4.3 9.6 0.00 0.00 0.00 85 1008.1
20260507195305 51 335 4.3 9.6 0.00 0.00 0.00 85 1008.1
20260507195203 51 336 4.3 9.6 0.00 0.00 0.00 85 1008.0
20260507195017 51 339 5.2 9.6 0.00 0.00 0.00 84 1007.8
20260507194903 51 339 5.2 9.6 0.00 0.00 0.00 84 1007.7
20260507194703 51 337 5.2 9.6 0.00 0.00 0.00 85 1008.0
20260507194619 51 338 5.2 9.6 0.00 0.00 0.00 85 1007.8
20260507194603 51 337 4.3 9.6 0.00 0.00 0.00 85 1007.8
20260507194503 51 334 5.2 9.6 0.00 0.00 0.00 85 1007.9
20260507194416 51 332 5.2 9.6 0.00 0.00 0.00 85 1008.1
20260507194319 51 331 4.3 8.7 0.00 0.00 0.00 85 1008.0
20260507194303 51 330 4.3 8.7 0.00 0.00 0.00 85 1008.0
20260507194019 51 329 4.3 7.8 0.00 0.00 0.00 86 1008.1
20260507194003 51 328 4.3 7.8 0.00 0.00 0.00 86 1008.0
20260507193903 51 328 4.3 7.8 0.00 0.00 0.00 86 1008.0
20260507193703 51 328 4.3 10.4 0.00 0.00 0.00 86 1008.0
20260507193603 51 328 4.3 10.4 0.00 0.00 0.00 86 1008.0
20260507193516 51 332 4.3 11.3 0.00 0.00 0.00 85 1008.1
20260507193503 51 334 4.3 11.3 0.00 0.00 0.00 85 1008.1
20260507193418 51 335 4.3 11.3 0.00 0.00 0.00 85 1008.0
20260507193403 51 335 4.3 11.3 0.00 0.00 0.00 85 1008.3
20260507193103 51 339 5.2 11.3 0.00 0.00 0.00 85 1007.9
20260507193003 51 338 5.2 11.3 0.00 0.00 0.00 85 1008.1
20260507192903 51 337 5.2 11.3 0.00 0.00 0.00 85 1008.1
20260507192803 51 337 5.2 11.3 0.00 0.00 0.00 85 1008.0
20260507192703 51 336 5.2 11.3 0.00 0.00 0.00 85 1007.9
20260507192603 51 333 5.2 11.3 0.00 0.00 0.00 85 1007.9
20260507192503 51 332 5.2 11.3 0.00 0.00 0.00 85 1007.8
20260507192403 51 333 5.2 11.3 0.00 0.00 0.00 85 1008.0
20260507192306 51 331 5.2 11.3 0.00 0.00 0.00 85 1007.8
20260507192203 51 331 5.2 11.3 0.00 0.00 0.00 85 1007.8
20260507192103 51 330 5.2 11.3 0.00 0.00 0.00 85 1007.8
20260507192003 51 330 5.2 11.3 0.00 0.00 0.00 86 1007.9
20260507191903 51 332 5.2 11.3 0.00 0.00 0.00 86 1007.9
20260507191803 51 331 4.3 11.3 0.00 0.00 0.00 86 1008.0
20260507191703 51 330 5.2 11.3 0.00 0.00 0.00 86 1008.0
20260507191603 51 335 4.3 9.6 0.00 0.00 0.00 85 1007.9
20260507191503 51 335 4.3 9.6 0.00 0.00 0.00 86 1007.9
20260507191403 51 336 4.3 9.6 0.00 0.00 0.00 86 1007.8
20260507191203 51 340 4.3 9.6 0.00 0.00 0.00 86 1008.0
20260507191103 51 338 4.3 9.6 0.00 0.00 0.00 86 1008.0
20260507191003 51 338 4.3 9.6 0.00 0.00 0.00 85 1008.1
20260507190903 51 337 4.3 9.6 0.00 0.00 0.00 85 1007.9
20260507190803 51 339 4.3 9.6 0.00 0.00 0.00 85 1007.9
20260507190703 51 338 3.5 9.6 0.00 0.00 0.00 85 1008.1
20260507190603 51 337 3.5 9.6 0.00 0.00 0.00 85 1008.1
20260507190503 51 337 4.3 9.6 0.00 0.00 0.00 85 1008.1
20260507190403 51 334 4.3 9.6 0.00 0.00 0.00 86 1007.9
20260507190303 51 333 4.3 9.6 0.00 0.00 0.00 86 1008.0
20260507190217 51 330 4.3 9.6 0.00 0.00 0.00 86 1008.0
20260507190203 51 329 4.3 9.6 0.00 0.00 0.00 86 1007.9
20260507190104 51 329 4.3 9.6 0.00 0.00 0.00 86 1007.9
20260507185903 51 329 4.3 9.6 0.00 0.00 0.00 86 1007.9
20260507185816 51 330 4.3 9.6 0.00 0.00 0.00 86 1007.9
20260507185803 51 330 4.3 10.4 0.00 0.00 0.00 86 1007.9
20260507185718 51 330 5.2 10.4 0.00 0.00 0.00 86 1007.8
20260507185403 51 333 5.2 12.2 0.00 0.00 0.00 86 1007.8
20260507185305 51 332 6.1 12.2 0.00 0.00 0.00 85 1007.8
20260507185203 51 336 6.1 12.2 0.00 0.00 0.00 86 1007.6
20260507185103 51 336 6.1 12.2 0.00 0.00 0.00 86 1007.4
20260507185003 51 336 7.0 12.2 0.00 0.00 0.00 86 1007.4
20260507184903 51 336 7.0 12.2 0.00 0.00 0.00 86 1007.7
20260507184803 51 334 7.0 12.2 0.00 0.00 0.00 86 1007.5
20260507184619 51 334 6.1 12.2 0.00 0.00 0.00 85 1007.6
20260507184603 51 333 6.1 12.2 0.00 0.00 0.00 85 1007.6
20260507184517 51 333 6.1 12.2 0.00 0.00 0.00 86 1007.5
20260507184505 51 332 6.1 12.2 0.00 0.00 0.00 86 1007.5
20260507184203 51 329 5.2 12.2 0.00 0.00 0.00 85 1007.6
20260507184103 51 328 5.2 12.2 0.00 0.00 0.00 86 1007.7
20260507184003 51 327 5.2 13.9 0.00 0.00 0.00 86 1007.5
20260507183903 51 325 4.3 14.8 0.00 0.00 0.00 86 1007.5
20260507183803 51 323 5.2 14.8 0.00 0.00 0.00 86 1007.6
20260507183703 51 321 5.2 14.8 0.00 0.00 0.00 86 1007.3
20260507183603 51 319 5.2 14.8 0.00 0.00 0.00 86 1007.3
20260507183503 51 317 5.2 14.8 0.00 0.00 0.00 86 1007.7
20260507183403 51 317 5.2 14.8 0.00 0.00 0.00 86 1007.3
20260507183303 51 317 5.2 14.8 0.00 0.00 0.00 86 1007.3
20260507183219 51 319 5.2 14.8 0.00 0.00 0.00 86 1007.4
20260507183203 51 320 5.2 14.8 0.00 0.00 0.00 86 1007.4
20260507183103 51 320 5.2 14.8 0.00 0.00 0.00 86 1007.4
20260507182919 51 322 6.1 14.8 0.00 0.00 0.00 86 1007.2
20260507182903 51 322 6.1 14.8 0.00 0.00 0.00 86 1007.3
20260507182817 51 324 6.1 14.8 0.00 0.00 0.00 86 1007.3
20260507182803 51 325 6.1 14.8 0.00 0.00 0.00 86 1007.3
20260507182503 51 333 5.2 13.9 0.00 0.00 0.00 87 1007.3
20260507182403 51 334 6.1 13.9 0.00 0.00 0.00 87 1007.3
20260507182306 51 333 6.1 13.9 0.00 0.00 0.00 86 1007.3
20260507182203 51 328 6.1 13.9 0.00 0.00 0.00 87 1007.4
20260507182103 51 325 6.1 13.9 0.00 0.00 0.00 87 1007.3
20260507182003 51 322 6.1 13.0 0.00 0.00 0.00 87 1007.3
20260507181903 51 322 6.1 13.0 0.00 0.00 0.00 87 1007.4
20260507181803 51 321 6.1 13.0 0.00 0.00 0.00 87 1007.3
20260507181703 51 320 5.2 13.0 0.00 0.00 0.00 86 1007.3
20260507181603 51 320 5.2 13.0 0.00 0.00 0.00 86 1007.5
20260507181503 51 320 5.2 13.0 0.00 0.00 0.00 86 1007.4
20260507181403 52 320 5.2 13.0 0.00 0.00 0.00 87 1007.5
20260507181203 52 327 5.2 13.0 0.00 0.00 0.00 87 1007.4
20260507181103 52 332 4.3 13.0 0.00 0.00 0.00 87 1007.4
20260507181016 52 335 4.3 8.7 0.00 0.00 0.00 87 1007.2
20260507181003 52 336 4.3 8.7 0.00 0.00 0.00 87 1007.2
20260507180903 52 337 4.3 10.4 0.00 0.00 0.00 87 1007.2
20260507180703 52 335 4.3 10.4 0.00 0.00 0.00 87 1007.2
20260507180603 52 335 4.3 10.4 0.00 0.00 0.00 87 1007.2
20260507180503 52 333 4.3 10.4 0.00 0.00 0.00 87 1007.3
20260507180403 52 333 4.3 10.4 0.00 0.00 0.00 87 1007.3
20260507180303 52 333 4.3 10.4 0.00 0.00 0.00 87 1007.5
20260507180203 52 331 4.3 13.0 0.00 0.00 0.00 87 1007.4
20260507180003 52 328 5.2 13.0 0.00 0.00 0.00 87 1007.5
20260507175903 52 327 5.2 13.0 0.00 0.00 0.00 87 1007.5
20260507175803 52 328 6.1 13.0 0.00 0.00 0.00 87 1007.3
20260507175703 52 326 6.1 13.0 0.00 0.00 0.00 87 1007.3
20260507175603 52 327 6.1 13.0 0.00 0.00 0.00 87 1007.3
20260507175503 52 329 6.1 13.0 0.00 0.00 0.00 87 1007.2
20260507175418 52 330 6.1 13.0 0.00 0.00 0.00 87 1007.2
20260507175306 52 330 7.0 13.0 0.00 0.00 0.00 88 1007.2
20260507175103 52 333 7.0 13.0 0.00 0.00 0.00 87 1007.3
20260507175003 52 334 7.0 12.2 0.00 0.00 0.00 87 1007.2
20260507174803 52 334 6.1 12.2 0.00 0.00 0.00 87 1007.1
20260507174703 52 336 6.1 11.3 0.00 0.00 0.00 87 1007.1
20260507174603 52 337 5.2 11.3 0.00 0.00 0.00 87 1007.1
20260507174503 52 336 5.2 11.3 0.00 0.00 0.00 87 1007.1
20260507174403 52 330 5.2 11.3 0.00 0.00 0.00 87 1007.1
20260507174303 52 328 4.3 9.6 0.00 0.00 0.00 87 1007.1
20260507174203 52 327 4.3 9.6 0.00 0.00 0.00 87 1007.1
20260507174103 52 324 4.3 9.6 0.00 0.00 0.00 87 1006.9
20260507174003 52 323 4.3 9.6 0.00 0.00 0.00 87 1006.9
20260507173917 52 323 4.3 9.6 0.00 0.00 0.00 87 1007.0
20260507173903 52 322 4.3 9.6 0.00 0.00 0.00 87 1006.8
20260507173603 52 319 4.3 9.6 0.00 0.00 0.00 87 1006.9
20260507173503 52 317 5.2 9.6 0.00 0.00 0.00 86 1006.8
20260507173303 52 323 5.2 15.6 0.00 0.00 0.00 87 1006.6
20260507173203 53 320 5.2 15.6 0.00 0.00 0.00 87 1006.8
20260507173117 53 320 5.2 15.6 0.00 0.00 0.00 86 1006.7
20260507173103 53 319 5.2 15.6 0.00 0.00 0.00 86 1006.7
20260507173004 53 319 5.2 15.6 0.00 0.00 0.00 86 1006.7
20260507172803 53 318 5.2 15.6 0.00 0.00 0.00 86 1006.9
20260507172703 53 317 5.2 15.6 0.00 0.00 0.00 86 1006.9
20260507172603 53 313 5.2 15.6 0.00 0.00 0.00 86 1006.9
20260507172403 53 307 6.1 15.6 0.00 0.00 0.00 86 1006.8
20260507172307 53 306 6.1 15.6 0.00 0.00 0.00 86 1006.6
20260507172203 53 307 6.1 15.6 0.00 0.00 0.00 86 1006.6
20260507172103 53 309 6.1 13.0 0.00 0.00 0.00 86 1006.8
20260507172003 53 309 6.1 13.0 0.00 0.00 0.00 85 1006.5
20260507171903 53 309 7.0 13.0 0.00 0.00 0.00 85 1006.5
20260507171803 53 308 7.0 13.0 0.00 0.00 0.00 85 1006.4
20260507171703 53 306 7.0 13.0 0.00 0.00 0.00 85 1006.4
20260507171603 53 307 7.0 13.0 0.00 0.00 0.00 85 1006.5
20260507171503 53 307 7.0 13.0 0.00 0.00 0.00 85 1006.5
20260507171403 53 308 7.0 13.0 0.00 0.00 0.00 85 1006.5
20260507171303 53 308 7.0 13.0 0.00 0.00 0.00 85 1006.5
20260507171103 53 303 6.1 12.2 0.00 0.00 0.00 85 1006.4
20260507171003 53 304 6.1 12.2 0.00 0.00 0.00 85 1006.2
20260507170903 53 305 6.1 12.2 0.00 0.00 0.00 85 1006.5
20260507170817 53 305 6.1 12.2 0.00 0.00 0.00 85 1006.4
20260507170803 53 304 6.1 12.2 0.00 0.00 0.00 85 1006.4
20260507170703 53 304 6.1 12.2 0.00 0.00 0.00 85 1006.4
20260507170503 53 304 6.1 11.3 0.00 0.00 0.00 85 1006.2
20260507170403 53 303 6.1 10.4 0.00 0.00 0.00 84 1006.4
20260507170303 53 301 6.1 12.2 0.00 0.00 0.00 85 1006.4
20260507170203 54 301 6.1 12.2 0.00 0.00 0.00 84 1006.1
20260507170103 54 300 7.0 12.2 0.00 0.00 0.00 84 1006.1
20260507170003 54 298 7.0 12.2 0.00 0.00 0.00 84 1006.2
20260507165916 54 295 7.0 12.2 0.00 0.00 0.00 84 1006.2
20260507165903 54 295 6.1 12.2 0.00 0.00 0.00 83 1006.2
20260507165803 54 294 6.1 12.2 0.00 0.00 0.00 83 1006.2
20260507165603 54 300 6.1 12.2 0.00 0.00 0.00 84 1006.5
20260507165503 54 302 6.1 12.2 0.00 0.00 0.00 84 1006.5
20260507165417 54 302 6.1 12.2 0.00 0.00 0.00 83 1006.4
20260507165403 54 303 6.1 12.2 0.00 0.00 0.00 83 1006.4
20260507165306 54 304 6.1 12.2 0.00 0.00 0.00 83 1006.4
20260507165117 54 309 6.1 12.2 0.00 0.00 0.00 83 1006.2
20260507165103 54 308 6.1 11.3 0.00 0.00 0.00 83 1006.4
20260507165003 54 309 6.1 13.0 0.00 0.00 0.00 83 1006.4
20260507164803 54 312 6.1 13.0 0.00 0.00 0.00 83 1006.1
20260507164703 54 311 6.1 13.0 0.00 0.00 0.00 83 1006.2
20260507164603 54 309 6.1 13.0 0.00 0.00 0.00 83 1006.2
20260507164503 54 306 6.1 13.0 0.00 0.00 0.00 83 1006.2
20260507164403 54 305 6.1 13.0 0.00 0.00 0.00 83 1006.0
20260507164303 54 304 7.0 13.0 0.00 0.00 0.00 83 1006.0
20260507164203 54 299 7.0 13.0 0.00 0.00 0.00 83 1006.2
20260507164103 54 298 7.0 13.0 0.00 0.00 0.00 82 1006.0
20260507164003 54 296 7.0 13.0 0.00 0.00 0.00 83 1006.0
20260507163903 54 294 7.0 13.0 0.00 0.00 0.00 82 1005.9
20260507163803 54 292 7.0 12.2 0.00 0.00 0.00 82 1006.2
20260507163703 55 291 7.0 12.2 0.00 0.00 0.00 82 1006.2
20260507163603 55 290 7.0 12.2 0.00 0.00 0.00 82 1005.9
20260507163503 55 290 7.0 12.2 0.00 0.00 0.00 83 1006.2
20260507163403 55 289 7.0 12.2 0.00 0.00 0.00 82 1006.2
20260507163303 55 285 7.0 12.2 0.00 0.00 0.00 82 1006.1
20260507163203 55 285 6.1 12.2 0.00 0.00 0.00 82 1006.1
20260507163103 55 285 6.1 12.2 0.00 0.00 0.00 82 1006.1
20260507163003 55 305 7.8 12.2 0.00 0.00 0.00 81 1006.0